Location: Unspecified
(51.6250°N, 0.8230°E)
Time: 06:20:39
(UTC+00:00)

Cosmos 1674 - Visible Passes

Search period start: 19 March 2019 00:00
Search period end: 29 March 2019 00:00
Orbit: 495 x 521 km, 82.5° (Epoch: 18 March)

Date Brightness Start Highest point End Pass type
(mag) Time Alt. Az. Time Alt. Az. Time Alt. Az.
19 Mar 3.8 19:28:09 10° NNE 19:31:15 24° ENE 19:31:58 22° E visible
19 Mar 4.2 21:03:28 10° NNW 21:06:50 33° W 21:06:50 33° W visible
20 Mar 4.1 19:10:53 10° NNE 19:13:42 20° ENE 19:15:08 16° E visible
20 Mar 3.7 20:45:54 10° NNW 20:49:27 41° W 20:50:01 38° WSW visible
21 Mar 4.4 18:53:42 10° NNE 18:56:09 16° ENE 18:58:23 11° ESE visible
21 Mar 3.3 20:28:21 10° NNW 20:32:02 53° W 20:33:16 35° SSW visible
22 Mar 2.9 20:10:50 10° NNW 20:14:36 68° W 20:16:33 26° S visible
23 Mar 2.6 19:53:20 10° N 19:57:08 87° W 19:59:55 18° S visible
24 Mar 2.6 19:35:53 10° N 19:39:40 74° E 19:43:22 10° SSE visible
24 Mar 5.8 21:13:23 10° WNW 21:14:38 11° W 21:15:54 10° WSW visible
25 Mar 2.7 19:18:26 10° N 19:22:11 57° ENE 19:25:56 10° SSE visible
25 Mar 5.6 20:55:14 10° NW 20:57:17 14° W 20:59:20 10° WSW visible
26 Mar 3.0 19:01:01 10° N 19:04:41 45° ENE 19:08:21 10° SSE visible
26 Mar 5.5 20:37:21 10° NW 20:39:55 18° W 20:42:29 10° SW visible
27 Mar 5.2 20:19:35 10° NW 20:22:32 22° W 20:25:28 10° SW visible
28 Mar 4.9 20:01:54 10° NNW 20:05:08 27° W 20:08:22 10° SSW visible
